When you browse on this site, cookies collect data to enhance your experience and personalize the content and advertising you see.
Visit our Privacy Policy to learn more. By continuing to use the site, you agree to this use of cookies and data.
  • In Slovakia
  • List of Countries
  • For 7 days
  • Water Temperature
  • Satellite Maps
  • Weather Map
  • Weather Widgets
  • user-avatar
    Login

    Hourly Weather Cottbus

    Today, 17 January, Thursday

    Time Temperature Precipitation Wind Pressure Humidity
    00:00 +1°C° 0 mm 5 mps 746 mmHg 79%
    01:00 +2°C° 0 mm 3 mps 745 mmHg 81%
    02:00 +1°C° 0 mm 4 mps 744 mmHg 79%
    03:00 +1°C° 0 mm 5 mps 744 mmHg 78%
    04:00 +1°C° 0 mm 5 mps 744 mmHg 76%
    05:00 +1°C° 0 mm 6 mps 744 mmHg 77%
    06:00 +1°C° 0 mm 6 mps 744 mmHg 79%
    07:00 +1°C° 0 mm 4 mps 743 mmHg 84%
    08:00 +2°C° 0 mm 5 mps 744 mmHg 82%
    09:00 +3°C° 0 mm 5 mps 744 mmHg 80%
    10:00 +3°C° 0 mm 6 mps 744 mmHg 78%
    11:00 +4°C° 0.1 mm 6 mps 744 mmHg 76%
    12:00 +5°C° 0.1 mm 5 mps 744 mmHg 75%
    13:00 +6°C° 0 mm 5 mps 744 mmHg 73%
    14:00 +5°C° 0 mm 4 mps 744 mmHg 75%
    15:00 +5°C° 0 mm 4 mps 744 mmHg 78%
    16:00 +4°C° 0 mm 3 mps 744 mmHg 80%
    17:00 +4°C° 0.1 mm 4 mps 743 mmHg 81%
    18:00 +4°C° 0.1 mm 4 mps 743 mmHg 81%
    19:00 +2°C° 0.1 mm 5 mps 743 mmHg 82%
    20:00 +2°C° 0 mm 5 mps 744 mmHg 80%
    21:00 +2°C° 0 mm 6 mps 744 mmHg 79%
    22:00 +2°C° 0 mm 7 mps 744 mmHg 78%
    23:00 +2°C° 0 mm 6 mps 745 mmHg 78%

    Tomorrow, 18 January, Friday

    Time Temperature Precipitation Wind Pressure Humidity
    00:00 +1°C° 0 mm 6 mps 746 mmHg 77%
    01:00 -1°C° 0 mm 6 mps 746 mmHg 77%
    02:00 -1°C° 0.3 mm 6 mps 747 mmHg 78%
    03:00 -1°C° 0.3 mm 6 mps 748 mmHg 78%
    04:00 -2°C° 0.3 mm 6 mps 749 mmHg 79%
    05:00 -1°C° 0 mm 5 mps 749 mmHg 80%
    06:00 -2°C° 0 mm 5 mps 750 mmHg 81%
    07:00 -3°C° 0 mm 4 mps 751 mmHg 82%
    08:00 -3°C° 0 mm 4 mps 752 mmHg 79%
    09:00 -2°C° 0 mm 5 mps 754 mmHg 77%
    10:00 -2°C° 0 mm 5 mps 755 mmHg 74%
    11:00 -2°C° 0 mm 5 mps 755 mmHg 71%
    12:00 -1°C° 0 mm 4 mps 756 mmHg 69%
    13:00 -1°C° 0 mm 4 mps 756 mmHg 66%
    14:00 0°C° 0 mm 3 mps 757 mmHg 69%
    15:00 -1°C° 0 mm 3 mps 757 mmHg 72%
    16:00 -1°C° 0 mm 3 mps 757 mmHg 75%
    17:00 -1°C° 0 mm 3 mps 757 mmHg 75%
    18:00 -2°C° 0 mm 3 mps 758 mmHg 75%
    19:00 -2°C° 0 mm 3 mps 758 mmHg 75%
    20:00 -2°C° 0 mm 3 mps 758 mmHg 75%
    21:00 -2°C° 0 mm 3 mps 758 mmHg 75%
    22:00 -2°C° 0 mm 3 mps 759 mmHg 75%
    23:00 -2°C° 0 mm 3 mps 759 mmHg 77%

    Day after tomorrow, 19 January, Saturday

    Time Temperature Precipitation Wind Pressure Humidity
    00:00 -2°C° 0 mm 2 mps 759 mmHg 80%
    01:00 -3°C° 0 mm 2 mps 759 mmHg 82%
    02:00 -3°C° 0 mm 2 mps 759 mmHg 83%
    03:00 -3°C° 0 mm 2 mps 759 mmHg 83%
    04:00 -3°C° 0 mm 2 mps 759 mmHg 84%
    05:00 -3°C° 0 mm 2 mps 759 mmHg 83%
    06:00 -1°C° 0 mm 1 mps 759 mmHg 82%
    07:00 -1°C° 0 mm 1 mps 759 mmHg 82%
    08:00 0°C° 0 mm 1 mps 759 mmHg 77%
    09:00 0°C° 0 mm 1 mps 759 mmHg 73%
    10:00 +1°C° 0 mm 1 mps 760 mmHg 69%
    11:00 +2°C° 0 mm 1 mps 759 mmHg 64%
    12:00 +3°C° 0 mm 1 mps 759 mmHg 59%
    13:00 +3°C° 0 mm 1 mps 759 mmHg 54%
    14:00 +3°C° 0 mm 1 mps 758 mmHg 57%
    15:00 +2°C° 0 mm 1 mps 758 mmHg 60%
    16:00 +1°C° 0 mm 1 mps 758 mmHg 63%
    17:00 +1°C° 0 mm 1 mps 758 mmHg 66%
    18:00 -2°C° 0 mm 2 mps 757 mmHg 69%
    19:00 -2°C° 0 mm 2 mps 757 mmHg 72%
    20:00 -3°C° 0 mm 2 mps 757 mmHg 74%
    21:00 -3°C° 0 mm 2 mps 757 mmHg 75%
    22:00 -3°C° 0 mm 2 mps 757 mmHg 77%
    23:00 -3°C° 0 mm 2 mps 757 mmHg 74%

    20 January, Sunday

    Time Temperature Precipitation Wind Pressure Humidity
    00:00 -1°C° 0 mm 1 mps 757 mmHg 71%
    01:00 -1°C° 0 mm 1 mps 757 mmHg 69%
    02:00 -1°C° 0 mm 1 mps 757 mmHg 68%
    03:00 -1°C° 0 mm 1 mps 756 mmHg 68%
    04:00 -2°C° 0 mm 1 mps 756 mmHg 67%
    05:00 -2°C° 0 mm 1 mps 756 mmHg 68%
    06:00 -2°C° 0 mm 1 mps 756 mmHg 68%
    07:00 -2°C° 0 mm 1 mps 756 mmHg 69%
    08:00 -1°C° 0 mm 1 mps 756 mmHg 67%
    09:00 -1°C° 0 mm 1 mps 757 mmHg 64%
    10:00 -1°C° 0 mm 0 mps 757 mmHg 61%
    11:00 +1°C° 0 mm 1 mps 757 mmHg 58%
    12:00 +1°C° 0 mm 1 mps 757 mmHg 55%
    13:00 +2°C° 0 mm 1 mps 757 mmHg 51%
    14:00 +1°C° 0 mm 1 mps 757 mmHg 55%
    15:00 +1°C° 0 mm 1 mps 757 mmHg 59%
    16:00 0°C° 0 mm 1 mps 757 mmHg 62%
    17:00 0°C° 0 mm 1 mps 758 mmHg 65%
    18:00 -1°C° 0 mm 1 mps 758 mmHg 68%
    19:00 -2°C° 0 mm 1 mps 759 mmHg 70%
    20:00 -2°C° 0 mm 1 mps 759 mmHg 71%
    21:00 -3°C° 0 mm 0 mps 759 mmHg 71%
    22:00 -3°C° 0 mm 0 mps 760 mmHg 71%
    23:00 -3°C° 0 mm 0 mps 760 mmHg 71%

    21 January, Monday

    Time Temperature Precipitation Wind Pressure Humidity
    00:00 -3°C° 0 mm 0 mps 760 mmHg 71%
    01:00 -3°C° 0 mm 0 mps 761 mmHg 71%
    02:00 -3°C° 0 mm 0 mps 761 mmHg 71%
    03:00 -3°C° 0 mm 0 mps 761 mmHg 71%
    04:00 -3°C° 0 mm 0 mps 761 mmHg 71%
    05:00 -3°C° 0 mm 0 mps 761 mmHg 71%
    06:00 -3°C° 0 mm 0 mps 761 mmHg 71%
    07:00 -4°C° 0 mm 0 mps 761 mmHg 71%
    08:00 -3°C° 0 mm 0 mps 761 mmHg 68%
    09:00 -1°C° 0 mm 1 mps 762 mmHg 65%
    10:00 -1°C° 0 mm 1 mps 762 mmHg 62%
    11:00 0°C° 0 mm 1 mps 762 mmHg 58%
    12:00 +1°C° 0 mm 1 mps 761 mmHg 54%
    13:00 +2°C° 0 mm 1 mps 761 mmHg 49%
    14:00 +1°C° 0 mm 1 mps 761 mmHg 52%
    15:00 +1°C° 0 mm 1 mps 761 mmHg 55%
    16:00 0°C° 0 mm 1 mps 760 mmHg 59%
    17:00 0°C° 0 mm 1 mps 760 mmHg 61%
    18:00 0°C° 0 mm 1 mps 760 mmHg 63%
    19:00 -3°C° 0 mm 2 mps 760 mmHg 65%
    20:00 -3°C° 0 mm 2 mps 760 mmHg 68%
    21:00 -3°C° 0 mm 2 mps 759 mmHg 71%
    22:00 -4°C° 0 mm 2 mps 759 mmHg 75%
    23:00 -4°C° 0 mm 2 mps 759 mmHg 76%

    22 January, Tuesday

    Time Temperature Precipitation Wind Pressure Humidity
    00:00 -4°C° 0 mm 2 mps 758 mmHg 77%
    01:00 -4°C° 0 mm 2 mps 758 mmHg 78%
    02:00 -4°C° 0 mm 2 mps 757 mmHg 78%
    03:00 -4°C° 0 mm 2 mps 757 mmHg 79%
    04:00 -4°C° 0 mm 2 mps 756 mmHg 79%
    05:00 -4°C° 0 mm 2 mps 756 mmHg 78%
    06:00 -4°C° 0 mm 2 mps 756 mmHg 78%
    07:00 -4°C° 0 mm 2 mps 755 mmHg 77%
    08:00 -4°C° 0 mm 2 mps 755 mmHg 74%
    09:00 -3°C° 0 mm 2 mps 755 mmHg 70%
    10:00 -2°C° 0 mm 2 mps 755 mmHg 67%
    11:00 -1°C° 0 mm 2 mps 754 mmHg 64%
    12:00 -1°C° 0 mm 2 mps 754 mmHg 60%
    13:00 +1°C° 0 mm 2 mps 753 mmHg 57%
    14:00 +1°C° 0 mm 2 mps 752 mmHg 60%
    15:00 -1°C° 0 mm 2 mps 752 mmHg 62%
    16:00 -1°C° 0 mm 2 mps 751 mmHg 64%
    17:00 -2°C° 0 mm 2 mps 751 mmHg 65%
    18:00 -3°C° 0 mm 2 mps 751 mmHg 66%
    19:00 -3°C° 0 mm 2 mps 751 mmHg 67%
    20:00 -3°C° 0 mm 2 mps 750 mmHg 68%
    21:00 -4°C° 0 mm 2 mps 750 mmHg 69%
    22:00 -4°C° 0 mm 2 mps 750 mmHg 70%
    23:00 -4°C° 0 mm 2 mps 749 mmHg 71%
    Show more